Hazlehurst, GA

2:22 AM EST on December 10, 2019 (GMT -0500)
Hazlehurst

Weather History for KAZE - August, 2019

Change the Weather History Date:

Sunday, August 11, 2019

  Actual Average Record
Temperature  
Mean Temperature 86 °F -  
Max Temperature 98 °F 94 °F 98 °F (2019)
Min Temperature 76 °F 74 °F 73 °F (2015)
Cooling Degree Days 22    
Growing Degree Days 36 (Base 50)    
Moisture  
Dew Point 73 °F    
Average Humidity 70    
Maximum Humidity 86    
Minimum Humidity 37    
Precipitation  
Precipitation 0.00 in - - ()
Sea Level Pressure  
Sea Level Pressure 29.93 in    
Wind  
Wind Speed 2 mph (South)    
Max Wind Speed 10 mph    
Max Gust Speed -    
Visibility 10 miles    
Events Rain , Thunderstorm    
Averages and records for this station are not official NWS values.
T = Trace of Precipitation, MM = Missing Value Source: NWS Daily Summary

Daily Weather History Graph

Daily Weather History Graph

Search for Another Location

Airport or City:

Astronomy

Aug. 11, 2019 Rise Set
Actual Time 6:52 AM EDT 8:18 PM EDT
Civil Twilight 6:26 AM EDT 8:44 PM EDT
Nautical Twilight 5:55 AM EDT 9:15 PM EDT
Astronomical Twilight 5:23 AM EDT 9:47 PM EDT
Moon 5:48 PM EDT (8/11) 3:19 AM EDT (8/11)
Length of Visible Light 14h 17m
Length of Day
13h 26m
Waxing Gibbous, 87% of the Moon is Illuminated
Aug 11
Waxing Gibbous
Aug 15
Full
Aug 23
Last Quarter
Aug 30
New
Sep 5
First Quarter

Hourly Weather History & Observations

Time (EDT) Temp. Heat Index Dew Point Humidity Pressure Visibility Wind Dir Wind Speed Gust Speed Precip Events Conditions
12:10 AM 81.3 °F 85.9 °F 72.5 °F 74% 29.95 in 10.0 mi South 3.5 mph - N/A   Clear
12:30 AM 80.6 °F 84.9 °F 72.5 °F 76% 29.96 in 10.0 mi SSE 3.5 mph - N/A   Scattered Clouds
12:50 AM 79.3 °F - 72.7 °F 80% 29.96 in 10.0 mi SSE 3.5 mph - N/A Thunderstorm Scattered Clouds
1:10 AM 78.8 °F - 72.9 °F 82% 29.97 in 10.0 mi SE 4.6 mph - N/A Thunderstorm Mostly Cloudy
1:30 AM 78.3 °F - 72.7 °F 83% 29.95 in 10.0 mi South 4.6 mph - N/A   Mostly Cloudy
1:50 AM 77.5 °F - 72.5 °F 84% 29.93 in 10.0 mi Calm Calm - N/A   Clear
2:10 AM 77.4 °F - 72.5 °F 85% 29.91 in 10.0 mi Calm Calm - N/A   Clear
2:30 AM 77.4 °F - 72.5 °F 85% 29.90 in 10.0 mi Calm Calm - N/A   Clear
2:50 AM 77.4 °F - 72.1 °F 84% 29.89 in 10.0 mi SW 3.5 mph - N/A   Clear
3:10 AM 77.4 °F - 71.8 °F 83% 29.89 in 10.0 mi Calm Calm - N/A   Clear
3:30 AM 77.2 °F - 71.8 °F 83% 29.89 in 10.0 mi Calm Calm - N/A   Clear
3:50 AM 77.2 °F - 71.8 °F 83% 29.89 in 10.0 mi Calm Calm - N/A   Clear
4:10 AM 77.0 °F - 71.8 °F 84% 29.90 in 10.0 mi Calm Calm - N/A   Clear
4:30 AM 76.5 °F - 71.8 °F 85% 29.90 in 10.0 mi Calm Calm - N/A   Clear
4:50 AM 76.3 °F - 71.6 °F 85% 29.89 in 10.0 mi Calm Calm - N/A   Clear
5:10 AM 76.1 °F - 71.8 °F 86% 29.90 in 10.0 mi Calm Calm - N/A   Clear
5:30 AM 76.3 °F - 71.8 °F 86% 29.91 in 10.0 mi SW 3.5 mph - N/A   Clear
5:50 AM 76.5 °F - 71.8 °F 85% 29.91 in 10.0 mi Calm Calm - N/A   Clear
6:10 AM 76.5 °F - 71.8 °F 85% 29.92 in 10.0 mi Calm Calm - N/A   Clear
6:30 AM 76.5 °F - 71.6 °F 85% 29.93 in 10.0 mi SSW 3.5 mph - N/A   Clear
6:50 AM 76.3 °F - 71.6 °F 85% 29.93 in 10.0 mi Calm Calm - N/A   Clear
7:10 AM 76.5 °F - 71.8 °F 85% 29.94 in 10.0 mi Calm Calm - N/A   Clear
7:30 AM 77.0 °F - 72.0 °F 84% 29.95 in 10.0 mi Calm Calm - N/A   Clear
7:50 AM 77.7 °F - 72.1 °F 83% 29.96 in 10.0 mi Calm Calm - N/A   Clear
8:10 AM 79.0 °F - 72.5 °F 80% 29.96 in 10.0 mi Calm Calm - N/A   Clear
8:30 AM 80.8 °F 85.4 °F 72.9 °F 77% 29.96 in 10.0 mi Calm Calm - N/A   Clear
8:50 AM 82.2 °F 87.8 °F 73.0 °F 74% 29.97 in 10.0 mi Calm Calm - N/A   Clear
9:10 AM 82.6 °F 88.3 °F 73.0 °F 73% 29.96 in 10.0 mi Calm Calm - N/A   Clear
9:30 AM 85.1 °F 92.2 °F 73.4 °F 68% 29.96 in 10.0 mi Calm Calm - N/A   Clear
9:50 AM 86.2 °F 93.4 °F 73.2 °F 65% 29.97 in 10.0 mi Calm Calm - N/A   Clear
10:10 AM 86.5 °F 93.8 °F 73.2 °F 64% 29.97 in 10.0 mi Calm Calm - N/A   Scattered Clouds
10:30 AM 87.8 °F 95.6 °F 73.2 °F 62% 29.97 in 10.0 mi Calm Calm - N/A   Clear
10:50 AM 88.7 °F 96.2 °F 72.7 °F 59% 29.97 in 10.0 mi Calm Calm - N/A   Clear
11:10 AM 90.3 °F 98.2 °F 72.7 °F 56% 29.97 in 10.0 mi Calm Calm - N/A   Clear
11:30 AM 92.5 °F 99.6 °F 71.6 °F 50% 29.97 in 10.0 mi SSW 3.5 mph - N/A   Clear
11:50 AM 94.1 °F 100.6 °F 70.2 °F 46% 29.97 in 10.0 mi Calm Calm - N/A   Clear
12:10 PM 95.5 °F 100.0 °F 67.8 °F 40% 29.97 in 10.0 mi West 3.5 mph - N/A   Clear
12:30 PM 97.0 °F 102.2 °F 68.2 °F 39% 29.96 in 10.0 mi Calm Calm - N/A   Clear
12:50 PM 95.7 °F 100.3 °F 67.8 °F 40% 29.95 in 10.0 mi Calm Calm - N/A   Mostly Cloudy
1:10 PM 96.6 °F 101.5 °F 68.0 °F 39% 29.94 in 10.0 mi SW 6.9 mph - N/A   Scattered Clouds
1:30 PM 97.3 °F 101.7 °F 66.7 °F 37% 29.94 in 10.0 mi SW 4.6 mph - N/A   Mostly Cloudy
1:50 PM 95.5 °F 100.6 °F 68.2 °F 41% 29.93 in 10.0 mi Calm Calm - N/A   Overcast
2:10 PM 94.6 °F 100.0 °F 69.3 °F 43% 29.93 in 10.0 mi North 10.4 mph - N/A   Overcast
2:30 PM 89.2 °F 95.4 °F 71.1 °F 55% 29.93 in 10.0 mi East 5.8 mph - N/A   Scattered Clouds
2:50 PM 89.6 °F 97.2 °F 72.3 °F 57% 29.93 in 10.0 mi SSE 8.1 mph - N/A Thunderstorm Mostly Cloudy
3:10 PM 91.0 °F 98.2 °F 71.8 °F 53% 29.92 in 10.0 mi ESE 6.9 mph - N/A   Mostly Cloudy
3:30 PM 86.2 °F 91.8 °F 71.2 °F 61% 29.93 in 10.0 mi WSW 4.6 mph - N/A Thunderstorm Mostly Cloudy
3:50 PM 80.6 °F 85.7 °F 74.1 °F 81% 29.93 in 4.0 mi Calm Calm - N/A Rain Light Rain
4:10 PM 82.8 °F 89.5 °F 74.7 °F 76% 29.92 in 10.0 mi SSW 3.5 mph - N/A   Scattered Clouds
4:30 PM 83.3 °F 90.8 °F 75.2 °F 76% 29.92 in 10.0 mi Calm Calm - N/A   Clear
4:50 PM 83.8 °F 91.8 °F 75.2 °F 75% 29.91 in 10.0 mi Calm Calm - N/A   Clear
5:10 PM 84.6 °F 93.5 °F 75.7 °F 75% 29.91 in 10.0 mi Calm Calm - N/A   Clear
5:30 PM 86.7 °F 95.0 °F 74.1 °F 66% 29.91 in 10.0 mi Calm Calm - N/A   Clear
5:50 PM 87.3 °F 96.3 °F 74.8 °F 66% 29.91 in 10.0 mi Calm Calm - N/A   Clear
6:10 PM 88.7 °F 97.2 °F 73.6 °F 61% 29.91 in 10.0 mi Calm Calm - N/A   Clear
6:30 PM 89.8 °F 97.0 °F 72.0 °F 56% 29.91 in 10.0 mi Calm Calm - N/A   Clear
6:50 PM 90.1 °F 96.3 °F 71.1 °F 53% 29.91 in 10.0 mi Calm Calm - N/A   Clear
7:10 PM 90.7 °F 97.9 °F 72.1 °F 54% 29.91 in 10.0 mi ENE 3.5 mph - N/A   Clear
7:30 PM 89.1 °F 98.5 °F 74.5 °F 62% 29.90 in 10.0 mi Calm Calm - N/A   Clear
7:50 PM 88.5 °F 98.3 °F 74.8 °F 64% 29.90 in 10.0 mi Calm Calm - N/A   Clear
8:10 PM 87.1 °F 96.3 °F 75.0 °F 67% 29.91 in 10.0 mi Calm Calm - N/A   Clear
8:30 PM 85.8 °F 95.1 °F 75.6 °F 71% 29.92 in 10.0 mi Calm Calm - N/A   Clear
8:50 PM 84.2 °F 93.0 °F 75.7 °F 76% 29.92 in 10.0 mi Calm Calm - N/A   Clear
9:10 PM 84.2 °F 92.3 °F 75.2 °F 74% 29.93 in 10.0 mi Calm Calm - N/A   Clear
9:30 PM 84.0 °F 92.6 °F 75.7 °F 76% 29.95 in 10.0 mi Calm Calm - N/A   Clear
9:50 PM 83.7 °F 92.4 °F 76.1 °F 78% 29.96 in 10.0 mi Calm Calm - N/A   Clear
10:10 PM 83.3 °F 91.4 °F 75.9 °F 78% 29.97 in 10.0 mi Calm Calm - N/A   Clear
10:30 PM 82.8 °F 90.4 °F 75.7 °F 79% 29.97 in 10.0 mi SSE 3.5 mph - N/A   Clear
10:50 PM 82.6 °F 89.7 °F 75.2 °F 78% 29.96 in 10.0 mi Calm Calm - N/A   Clear
11:10 PM 82.4 °F 89.5 °F 75.2 °F 79% 29.95 in 10.0 mi Calm Calm - N/A   Clear
11:30 PM 82.0 °F 88.6 °F 74.8 °F 79% 29.95 in 10.0 mi Calm Calm - N/A   Clear
11:50 PM 81.7 °F 88.0 °F 74.8 °F 80% 29.94 in 10.0 mi Calm Calm - N/A   Clear